Overview Statistics Trail Chart Weather Telemetry Raw packets
 

This is the latest recevied weather packets stored in our database for station/object DL4SAV. If no packets are shown the sender has not sent any weather packets the latest 10 day(s).

<< 47 48 49 50 51 52 53 >>
Time Temp. Humidity Pressure Rain* Wind** Luminosity Snow
1788280127 25.56° C 39% 1021.2 hPa 0 mm - - -
1788279827 25.56° C 39% 1021.2 hPa 0 mm - - -
1788279526 26.11° C 39% 1021.5 hPa 0 mm - - -
1788279226 26.11° C 39% 1021.3 hPa 0 mm - - -
1788278926 25.56° C 40% 1021.2 hPa 0 mm - - -
1788278625 25.56° C 40% 1021.3 hPa 0 mm - - -
1788278325 25.56° C 40% 1021.3 hPa 0 mm - - -
1788278025 25.56° C 39% 1021.1 hPa 0 mm - - -
1788277725 26.11° C 39% 1021.2 hPa 0 mm - - -
1788277424 26.11° C 39% 1021.3 hPa 0 mm - - -
1788277124 26.11° C 39% 1021.1 hPa 0 mm - - -
1788276824 26.11° C 39% 1021.3 hPa 0 mm - - -
1788276524 26.11° C 39% 1021.1 hPa 0 mm - - -
1788276223 26.11° C 40% 1021 hPa 0 mm - - -
1788275923 26.11° C 39% 1021.2 hPa 0 mm - - -
1788275623 26.67° C 39% 1021 hPa 0 mm - - -
1788275322 27.22° C 39% 1020.9 hPa 0 mm - - -
1788275022 26.67° C 41% 1021 hPa 0 mm - - -
1788274722 26.11° C 42% 1020.9 hPa 0 mm - - -
1788274421 25.56° C 43% 1020.9 hPa 0 mm - - -
1788274121 25° C 44% 1020.9 hPa 0 mm - - -
1788273821 24.44° C 45% 1020.8 hPa 0 mm - - -
1788273521 23.89° C 45% 1020.9 hPa 0 mm - - -
1788273220 23.89° C 45% 1020.8 hPa 0 mm - - -
1788272920 23.33° C 45% 1020.8 hPa 0 mm - - -

* Rain latest hour (hover to see other rain measurements)
** Current wind speed in m/s (hover to see current wind gust speed)